This is the latest recevied weather packets stored in our database for station/object W0DXV. If no packets are shown the sender has not sent any weather packets the latest 10 day(s).
| Time | Temp. | Humidity | Pressure | Rain* | Wind** | Luminosity | Snow |
|---|---|---|---|---|---|---|---|
| 1777147149 | 27.22° C | 45% | 1003.9 hPa | 0 mm | - | 184 W/m² | - |
| 1777146845 | 27.22° C | 45% | 1004 hPa | 0 mm | - | 164 W/m² | - |
| 1777146541 | 27.78° C | 47% | 1003.8 hPa | 0 mm | - | 216 W/m² | - |
| 1777146237 | 28.33° C | 46% | 1003.9 hPa | 0 mm | - | 276 W/m² | - |
| 1777145932 | 27.78° C | 48% | 1004 hPa | 0 mm | - | 320 W/m² | - |
| 1777145630 | 27.78° C | 47% | 1004.1 hPa | 0 mm | - | 274 W/m² | - |
| 1777145329 | 27.22° C | 47% | 1004 hPa | 0 mm | - | 251 W/m² | - |
| 1777145024 | 27.22° C | 47% | 1004.2 hPa | 0 mm | - | 232 W/m² | - |
| 1777144719 | 27.22° C | 47% | 1004.1 hPa | 0 mm | - | 223 W/m² | - |
| 1777144413 | 27.22° C | 47% | 1004.3 hPa | 0 mm | - | 217 W/m² | - |
| 1777144111 | 27.22° C | 47% | 1004.5 hPa | 0 mm | - | 213 W/m² | - |
| 1777143806 | 27.22° C | 46% | 1004.5 hPa | 0 mm | - | 203 W/m² | - |
| 1777143504 | 27.78° C | 45% | 1004.5 hPa | 0 mm | - | 214 W/m² | - |
| 1777143199 | 27.78° C | 44% | 1004.3 hPa | 0 mm | - | 236 W/m² | - |
| 1777142895 | 27.78° C | 43% | 1004.5 hPa | 0 mm | - | 205 W/m² | - |
| 1777142591 | 28.89° C | 41% | 1004.4 hPa | 0 mm | - | 264 W/m² | - |
| 1777142290 | 28.89° C | 39% | 1004.6 hPa | 0 mm | - | 390 W/m² | - |
| 1777141988 | 28.89° C | 42% | 1004.5 hPa | 0 mm | - | 371 W/m² | - |
| 1777141685 | 28.89° C | 39% | 1004.5 hPa | 0 mm | - | 678 W/m² | - |
| 1777141384 | 28.89° C | 40% | 1004.6 hPa | 0 mm | - | 623 W/m² | - |
| 1777141080 | 28.89° C | 39% | 1004.7 hPa | 0 mm | - | 408 W/m² | - |
| 1777140777 | 28.33° C | 40% | 1004.6 hPa | 0 mm | - | 502 W/m² | - |
| 1777140473 | 28.89° C | 39% | 1004.5 hPa | 0 mm | - | 469 W/m² | - |
| 1777140171 | 28.89° C | 39% | 1004.7 hPa | 0 mm | - | 339 W/m² | - |
| 1777139868 | 29.44° C | 41% | 1004.8 hPa | 0 mm | - | 521 W/m² | - |
* Rain latest hour (hover to see other rain measurements)
** Current wind speed in m/s (hover to see current wind gust speed)